Weather History for Muskogee, OK

Change the Weather History Date:

Wednesday, November 21, 2012

  Actual Average Record
Temperature  
Mean Temperature 54 °F -  
Max Temperature 73 °F 57 °F 73 °F (2003)
Min Temperature 35 °F 37 °F 19 °F (2000)
Degree Days  
Heating Degree Days 11    
Growing Degree Days 4 (Base 50)    
Moisture  
Dew Point 41 °F    
Average Humidity 77    
Maximum Humidity 100    
Minimum Humidity 29    
Precipitation  
Precipitation 0.00 in - - ()
Sea Level Pressure  
Sea Level Pressure 30.22 in    
Wind  
Wind Speed 4 mph (SSE)    
Max Wind Speed 12 mph    
Max Gust Speed -    
Visibility 6 miles    
Events Fog    
Averages and records for this station are not official NWS values.
T = Trace of Precipitation, MM = Missing Value Source: NWS Daily Summary

Daily Weather History Graph

Daily Weather History Graph

Search for Another Location

Airport:

Trip Planner

Search our weather history database for the weather conditions in past years. The results will help you decide how hot, cold, wet, or windy it might be!

Date:

Astronomy

Nov. 21, 2012 Rise Set
Actual Time 7:03 AM CST 5:10 PM CST
Civil Twilight 6:36 AM CST 5:38 PM CST
Nautical Twilight 6:05 AM CST 6:09 PM CST
Astronomical Twilight 5:34 AM CST 6:40 PM CST
Moon 1:16 PM CST (11/21) 12:36 AM CST (11/21)
Length of Visible Light 11h 02m
Length of Day
10h 07m
First Quarter, 62% of the Moon is Illuminated
Nov 21
First Quarter
Nov 28
Full
Dec 6
Last Quarter
Dec 13
New
Dec 19
First Quarter

Hourly Weather History & Observations

Time (CST) Temp. Windchill Dew Point Humidity Pressure Visibility Wind Dir Wind Speed Gust Speed Precip Events Conditions
12:53 AM 46.0 °F 44.8 °F 42.1 °F 86% 30.23 in 10.0 mi NNE 3.5 mph - N/A   Clear
1:53 AM 44.1 °F - 42.1 °F 93% 30.23 in 10.0 mi Calm Calm - N/A   Clear
2:53 AM 42.1 °F - 42.1 °F 100% 30.24 in 9.0 mi Calm Calm - N/A   Clear
3:53 AM 42.1 °F - 41.0 °F 96% 30.25 in 7.0 mi Calm Calm - N/A   Clear
4:53 AM 37.9 °F - 37.9 °F 100% 30.25 in 2.0 mi Calm Calm - N/A   Clear
5:04 AM 39.2 °F - 39.2 °F 100% 30.25 in 3.0 mi Calm Calm - N/A   Clear
5:44 AM 35.6 °F 31.7 °F 35.6 °F 100% 30.25 in 1.8 mi SSE 4.6 mph - N/A   Clear
5:47 AM 35.6 °F 31.7 °F 35.6 °F 100% 30.25 in 0.8 mi SSE 4.6 mph - N/A   Clear
5:53 AM 37.0 °F 32.4 °F 37.0 °F 100% 30.25 in 0.5 mi SSE 5.8 mph - N/A Fog Fog
6:01 AM 35.6 °F 30.7 °F 35.6 °F 100% 30.25 in 0.8 mi SSE 5.8 mph - N/A   Mist
6:17 AM 35.6 °F 32.8 °F 35.6 °F 100% 30.25 in 0.2 mi South 3.5 mph - N/A Fog Fog
6:34 AM 37.4 °F 33.8 °F 37.4 °F 100% 30.26 in 0.5 mi SSE 4.6 mph - N/A Fog Fog
6:53 AM 37.9 °F 35.5 °F 37.9 °F 100% 30.26 in 0.5 mi SSE 3.5 mph - N/A Fog Fog
7:00 AM 37.4 °F 34.9 °F 37.4 °F 100% 30.26 in 0.2 mi SSE 3.5 mph - N/A Fog Fog
7:44 AM 41.0 °F 38.0 °F 41.0 °F 100% 30.28 in 1.2 mi South 4.6 mph - N/A   Scattered Clouds
7:46 AM 41.0 °F 38.0 °F 41.0 °F 100% 30.28 in 2.5 mi SSE 4.6 mph - N/A   Partly Cloudy
7:53 AM 43.0 °F 40.3 °F 43.0 °F 100% 30.28 in 3.0 mi South 4.6 mph - N/A   Partly Cloudy
8:53 AM 46.9 °F - 45.0 °F 93% 30.30 in 10.0 mi SSE 5.8 mph - N/A   Clear
9:53 AM 55.9 °F - 46.0 °F 69% 30.29 in 10.0 mi SE 8.1 mph - N/A   Clear
10:53 AM 63.0 °F - 46.0 °F 54% 30.27 in 10.0 mi SE 11.5 mph - N/A   Clear
11:53 AM 66.9 °F - 45.0 °F 45% 30.25 in 10.0 mi South 6.9 mph - N/A   Clear
12:53 PM 70.0 °F - 43.0 °F 38% 30.21 in 10.0 mi SSE 8.1 mph - N/A   Clear
1:53 PM 73.9 °F - 39.9 °F 29% 30.17 in 10.0 mi South 9.2 mph - N/A   Clear
2:53 PM 73.9 °F - 41.0 °F 30% 30.15 in 10.0 mi SSE 10.4 mph - N/A   Clear
3:53 PM 72.0 °F - 43.0 °F 35% 30.14 in 10.0 mi SE 8.1 mph - N/A   Clear
4:53 PM 64.0 °F - 45.0 °F 50% 30.14 in 10.0 mi ESE 8.1 mph - N/A   Clear
5:53 PM 61.0 °F - 43.0 °F 52% 30.14 in 10.0 mi SSE 4.6 mph - N/A   Clear
6:53 PM 57.9 °F - 42.1 °F 56% 30.15 in 10.0 mi South 4.6 mph - N/A   Clear
7:53 PM 54.0 °F - 41.0 °F 62% 30.14 in 10.0 mi SE 5.8 mph - N/A   Clear
8:53 PM 53.1 °F - 39.9 °F 61% 30.14 in 10.0 mi SSE 5.8 mph - N/A   Clear
9:53 PM 53.1 °F - 42.1 °F 66% 30.12 in 10.0 mi SSE 8.1 mph - N/A   Clear
10:53 PM 52.0 °F - 42.1 °F 69% 30.11 in 10.0 mi SSE 6.9 mph - N/A   Clear
11:53 PM 53.1 °F - 42.1 °F 66% 30.10 in 10.0 mi SSE 6.9 mph - N/A   Clear